Ludington, MI

8:14 AM EST on December 09, 2019 (GMT -0500)
Mason County

Weather History for KLDM - November, 2019

Change the Weather History Date:

Friday, November 15, 2019

  Actual Average Record
Temperature  
Mean Temperature 32 °F -  
Max Temperature 37 °F 45 °F 63 °F (1953)
Min Temperature 26 °F 31 °F 5 °F (1959)
Degree Days  
Heating Degree Days 34    
Moisture  
Dew Point 25 °F    
Average Humidity 70    
Maximum Humidity 78    
Minimum Humidity 62    
Precipitation  
Precipitation 0.03 in - - ()
Sea Level Pressure  
Sea Level Pressure 30.29 in    
Wind  
Wind Speed 8 mph ()    
Max Wind Speed 15 mph    
Max Gust Speed 22 mph    
Visibility 10.0 miles    
Events      
Averages and records for this station are not official NWS values.
T = Trace of Precipitation, MM = Missing Value Source: Averaged Metar Reports

Daily Weather History Graph

Daily Weather History Graph

Search for Another Location

Airport or City:

Astronomy

Nov. 15, 2019 Rise Set
Actual Time 7:40 AM EST 5:19 PM EST
Civil Twilight 7:09 AM EST 5:50 PM EST
Nautical Twilight 6:34 AM EST 6:25 PM EST
Astronomical Twilight 6:00 AM EST 6:59 PM EST
Moon 7:51 PM EST (11/15) 10:39 AM EST (11/15)
Length of Visible Light 10h 41m
Length of Day
9h 39m
Waning Gibbous, 90% of the Moon is Illuminated
Nov 15
Waning Gibbous
Nov 19
Last Quarter
Nov 26
New
Dec 4
First Quarter
Dec 12
Full

Hourly Weather History & Observations

Time (EST) Temp. Windchill Dew Point Humidity Pressure Visibility Wind Dir Wind Speed Gust Speed Precip Events Conditions
12:15 AM 32.2 °F 22.7 °F 26.1 °F 78% 30.17 in 10.0 mi West 12.7 mph 19.6 mph N/A   Overcast
12:35 AM 32.2 °F 23.8 °F 25.5 °F 76% 30.17 in 10.0 mi WSW 10.4 mph 21.9 mph N/A   Overcast
12:36 AM 32.2 °F 23.8 °F 25.5 °F 76% 30.17 in 10.0 mi WSW 10.4 mph 21.9 mph N/A   Overcast
12:55 AM 32.2 °F 21.8 °F 25.5 °F 76% 30.17 in 10.0 mi West 15.0 mph 20.7 mph N/A   Overcast
1:15 AM 32.5 °F 23.2 °F 26.1 °F 77% 30.18 in 10.0 mi West 12.7 mph 18.4 mph N/A   Overcast
1:35 AM 32.9 °F 23.7 °F 25.9 °F 75% 30.17 in 10.0 mi West 12.7 mph 18.4 mph N/A   Overcast
1:55 AM 33.6 °F 25.6 °F 25.0 °F 71% 30.17 in 10.0 mi West 10.4 mph 18.4 mph N/A   Overcast
1:56 AM 33.4 °F 25.4 °F 25.0 °F 71% 30.17 in 10.0 mi West 10.4 mph 18.4 mph N/A   Overcast
2:15 AM 33.3 °F 26.4 °F 25.7 °F 74% 30.17 in 10.0 mi WNW 8.1 mph 16.1 mph N/A   Overcast
2:16 AM 33.3 °F 25.1 °F 25.7 °F 74% 30.17 in 10.0 mi WNW 10.4 mph 17.3 mph N/A   Overcast
2:35 AM 33.4 °F 25.9 °F 26.6 °F 76% 30.17 in 10.0 mi WNW 9.2 mph - N/A   Overcast
2:55 AM 33.3 °F 25.7 °F 26.4 °F 76% 30.18 in 10.0 mi WNW 9.2 mph - N/A   Overcast
3:15 AM 33.1 °F 24.9 °F 25.7 °F 74% 30.18 in 10.0 mi WNW 10.4 mph 17.3 mph N/A   Overcast
3:35 AM 32.9 °F 26.7 °F 25.7 °F 75% 30.18 in 10.0 mi WNW 6.9 mph - N/A   Overcast
3:36 AM 32.9 °F 25.9 °F 25.7 °F 75% 30.18 in 10.0 mi WNW 8.1 mph - N/A   Overcast
3:55 AM 32.9 °F 25.9 °F 26.2 °F 76% 30.18 in 10.0 mi WNW 8.1 mph - N/A   Overcast
3:56 AM 32.9 °F 25.9 °F 26.2 °F 76% 30.18 in 10.0 mi WNW 8.1 mph - N/A   Overcast
4:15 AM 32.9 °F 23.7 °F 26.1 °F 76% 30.18 in 10.0 mi WNW 12.7 mph 16.1 mph N/A   Overcast
4:35 AM 32.9 °F 25.9 °F 26.4 °F 77% 30.19 in 10.0 mi WNW 8.1 mph 18.4 mph N/A   Overcast
4:55 AM 33.8 °F 27.0 °F 27.1 °F 77% 30.19 in 10.0 mi WNW 8.1 mph - N/A   Overcast
5:15 AM 34.0 °F 27.2 °F 26.6 °F 74% 30.20 in 10.0 mi NW 8.1 mph 18.4 mph N/A   Overcast
5:35 AM 33.8 °F 25.8 °F 25.9 °F 73% 30.20 in 10.0 mi NW 10.4 mph - N/A   Overcast
5:55 AM 33.8 °F 28.6 °F 26.1 °F 73% 30.20 in 10.0 mi NW 5.8 mph - N/A   Overcast
5:56 AM 33.8 °F 28.6 °F 26.2 °F 74% 30.20 in 10.0 mi WNW 5.8 mph - N/A   Overcast
6:15 AM 33.4 °F 27.3 °F 25.9 °F 74% 30.20 in 10.0 mi WNW 6.9 mph - N/A   Overcast
6:35 AM 33.1 °F 27.7 °F 25.3 °F 73% 30.21 in 10.0 mi WNW 5.8 mph - N/A   Overcast
6:36 AM 33.1 °F 26.9 °F 25.3 °F 73% 30.21 in 10.0 mi WNW 6.9 mph - N/A   Overcast
6:55 AM 33.3 °F 27.1 °F 25.5 °F 73% 30.21 in 10.0 mi WNW 6.9 mph - N/A   Overcast
6:56 AM 33.3 °F 27.9 °F 25.5 °F 73% 30.21 in 10.0 mi WNW 5.8 mph - N/A   Overcast
7:15 AM 33.1 °F 28.7 °F 25.5 °F 74% 30.21 in 10.0 mi West 4.6 mph - N/A   Overcast
7:35 AM 33.1 °F 26.9 °F 25.5 °F 74% 30.22 in 10.0 mi WNW 6.9 mph - N/A   Overcast
7:55 AM 33.3 °F 27.9 °F 25.7 °F 74% 30.22 in 10.0 mi WNW 5.8 mph - N/A   Overcast
8:15 AM 33.4 °F 28.1 °F 26.2 °F 75% 30.23 in 10.0 mi NW 5.8 mph - N/A   Overcast
8:35 AM 33.4 °F 27.3 °F 25.7 °F 73% 30.24 in 10.0 mi WNW 6.9 mph - N/A   Overcast
8:36 AM 33.4 °F 28.1 °F 25.7 °F 73% 30.24 in 10.0 mi NW 5.8 mph - N/A   Overcast
8:55 AM 33.4 °F 29.1 °F 26.1 °F 74% 30.24 in 10.0 mi WNW 4.6 mph - 0.01 in   Overcast
9:35 AM 34.0 °F 28.8 °F 26.6 °F 74% 30.26 in 10.0 mi WNW 5.8 mph - N/A   Overcast
9:55 AM 34.2 °F 26.8 °F 26.6 °F 74% 30.26 in 10.0 mi WNW 9.2 mph - N/A   Overcast
9:56 AM 34.3 °F 27.0 °F 26.6 °F 73% 30.27 in 10.0 mi WNW 9.2 mph - N/A   Overcast
10:15 AM 34.5 °F 28.6 °F 26.6 °F 73% 30.26 in 10.0 mi WNW 6.9 mph - N/A   Overcast
10:16 AM 34.7 °F 28.8 °F 26.6 °F 72% 30.26 in 10.0 mi WNW 6.9 mph - N/A   Overcast
10:35 AM 34.7 °F 30.6 °F 26.6 °F 72% 30.27 in 10.0 mi NW 4.6 mph - N/A   Overcast
10:55 AM 34.9 °F 30.8 °F 27.1 °F 73% 30.28 in 10.0 mi NW 4.6 mph - 0.01 in   Overcast
11:15 AM 35.6 °F 29.9 °F 26.1 °F 68% 30.29 in 10.0 mi NW 6.9 mph - 0.01 in   Overcast
11:35 AM 35.8 °F 29.4 °F 26.1 °F 68% 30.29 in 10.0 mi North 8.1 mph - 0.01 in   Overcast
11:36 AM 35.8 °F 30.1 °F 25.9 °F 67% 30.29 in 10.0 mi North 6.9 mph - 0.01 in   Overcast
11:55 AM 35.8 °F 28.8 °F 25.7 °F 67% 30.29 in 10.0 mi North 9.2 mph - 0.01 in   Overcast
11:56 AM 35.6 °F 28.6 °F 25.7 °F 67% 30.29 in 10.0 mi North 9.2 mph - 0.01 in   Overcast
12:15 PM 35.8 °F 28.3 °F 25.5 °F 66% 30.29 in 10.0 mi NNW 10.4 mph - N/A   Overcast
12:16 PM 35.8 °F 29.4 °F 25.5 °F 66% 30.30 in 10.0 mi NW 8.1 mph - N/A   Overcast
12:35 PM 35.8 °F 29.4 °F 25.5 °F 66% 30.30 in 10.0 mi NNW 8.1 mph - N/A   Overcast
12:55 PM 37.0 °F 31.0 °F 26.1 °F 65% 30.30 in 10.0 mi North 8.1 mph - N/A   Overcast
1:15 PM 35.4 °F 29.7 °F 25.5 °F 67% 30.30 in 10.0 mi NNW 6.9 mph - N/A   Mostly Cloudy
1:55 PM 35.6 °F 28.6 °F 25.7 °F 67% 30.31 in 10.0 mi NNW 9.2 mph - N/A   Scattered Clouds
2:15 PM 36.5 °F 32.7 °F 26.4 °F 67% 30.31 in 10.0 mi WNW 4.6 mph - N/A   Mostly Cloudy
2:16 PM 36.7 °F 32.9 °F 26.4 °F 66% 30.31 in 10.0 mi NW 4.6 mph - N/A   Mostly Cloudy
2:35 PM 36.5 °F 29.7 °F 26.4 °F 67% 30.32 in 10.0 mi NNW 9.2 mph - N/A   Overcast
2:55 PM 36.7 °F 30.5 °F 25.0 °F 63% 30.32 in 10.0 mi NNW 8.1 mph - N/A   Overcast
2:56 PM 36.5 °F 30.3 °F 25.0 °F 63% 30.32 in 10.0 mi North 8.1 mph - N/A   Overcast
3:15 PM 36.5 °F 31.0 °F 25.3 °F 64% 30.33 in 10.0 mi NNW 6.9 mph - N/A   Overcast
3:35 PM 36.5 °F 31.0 °F 25.0 °F 63% 30.33 in 10.0 mi North 6.9 mph - N/A   Mostly Cloudy
3:36 PM 36.5 °F 30.3 °F 25.0 °F 63% 30.33 in 10.0 mi North 8.1 mph - N/A   Mostly Cloudy
3:55 PM 36.5 °F 30.3 °F 25.2 °F 64% 30.34 in 10.0 mi North 8.1 mph - N/A   Overcast
4:15 PM 35.8 °F 29.4 °F 24.8 °F 64% 30.35 in 10.0 mi North 8.1 mph - N/A   Overcast
4:35 PM 35.8 °F 29.4 °F 23.7 °F 62% 30.35 in 10.0 mi North 8.1 mph - N/A   Mostly Cloudy
4:36 PM 35.6 °F 29.2 °F 23.7 °F 62% 30.35 in 10.0 mi North 8.1 mph - N/A   Mostly Cloudy
4:55 PM 34.9 °F 32.0 °F 23.0 °F 62% 30.36 in 10.0 mi NNE 3.5 mph - N/A   Scattered Clouds
5:15 PM 34.2 °F 30.0 °F 22.8 °F 63% 30.36 in 10.0 mi North 4.6 mph - N/A   Clear
5:16 PM 34.2 °F 29.0 °F 22.8 °F 63% 30.36 in 10.0 mi North 5.8 mph - N/A   Clear
5:35 PM 33.4 °F 29.1 °F 22.5 °F 64% 30.37 in 10.0 mi North 4.6 mph - N/A   Clear
5:55 PM 32.9 °F 29.8 °F 22.1 °F 65% 30.37 in 10.0 mi North 3.5 mph - N/A   Clear
6:15 PM 32.0 °F 28.7 °F 21.9 °F 66% 30.38 in 10.0 mi NNE 3.5 mph - N/A   Clear
6:16 PM 32.0 °F 28.7 °F 22.1 °F 67% 30.39 in 10.0 mi NNE 3.5 mph - N/A   Clear
6:35 PM 32.0 °F 27.5 °F 21.9 °F 66% 30.39 in 10.0 mi NNE 4.6 mph - N/A   Clear
6:36 PM 32.0 °F 27.5 °F 21.9 °F 66% 30.39 in 10.0 mi NNE 4.6 mph - N/A   Clear
6:55 PM 31.5 °F 26.8 °F 21.2 °F 66% 30.40 in 10.0 mi NE 4.6 mph - N/A   Clear
7:15 PM 31.3 °F 26.6 °F 20.3 °F 64% 30.41 in 10.0 mi NNE 4.6 mph - N/A   Clear
7:35 PM 30.7 °F 27.3 °F 19.6 °F 63% 30.42 in 10.0 mi NNE 3.5 mph - N/A   Clear
7:55 PM 30.4 °F - 19.4 °F 64% 30.42 in 10.0 mi Calm Calm - N/A   Clear
8:15 PM 30.0 °F - 19.2 °F 64% 30.42 in 10.0 mi Calm Calm - N/A   Clear
8:35 PM 29.7 °F - 19.4 °F 66% 30.43 in 10.0 mi Calm Calm - N/A   Clear
8:55 PM 29.8 °F 24.9 °F 19.2 °F 65% 30.43 in 10.0 mi NE 4.6 mph - N/A   Clear
9:35 PM 29.3 °F 24.3 °F 21.0 °F 71% 30.44 in 10.0 mi NE 4.6 mph - N/A   Clear
10:15 PM 28.4 °F 23.3 °F 21.0 °F 74% 30.45 in 10.0 mi NE 4.6 mph - N/A   Clear
10:35 PM 28.0 °F 24.2 °F 20.5 °F 73% 30.45 in 10.0 mi NE 3.5 mph - N/A   Clear
10:55 PM 27.5 °F 23.6 °F 20.3 °F 74% 30.45 in 10.0 mi NE 3.5 mph - N/A   Clear
11:15 PM 27.0 °F 21.6 °F 20.3 °F 76% 30.45 in 10.0 mi NE 4.6 mph - N/A   Clear
11:35 PM 26.6 °F 22.6 °F 20.3 °F 77% 30.46 in 10.0 mi ENE 3.5 mph - N/A   Clear
11:56 PM 26.4 °F 20.9 °F 20.3 °F 78% 30.46 in 10.0 mi ENE 4.6 mph - N/A   Clear